[[{"header":{"parameterUnit":"m.s-1","parameterCategory":1,"la1":30.2991,"la2":30.254,"lo1":-89.0895,"lo2":-89.0444,"dy":0.0017,"dx":0.0017,"nx":28,"ny":28,"refTime":"2024-08-10T03:00:00:Z","depth":0,"parameterNumber":2,"parameterNumberName":"U-component_of_WINDS"},"data":[0,0,0,0,0,0,0,0,0,0,0,0,0,0,0,0,0,0,0,0,0,0,0,0,0,0,0,0,0,0,0,0,0,0,0,0,0,0,0,0,0,0,0,0,0,0,0,0,0,0,0,0,0,0,0,0,0,0,0.8829,0.883,0,0.8943,0.8944,0.8946,0.902,0.902,0.9021,0.9021,0.9142,0.9145,0.9147,0,0,0,0,0,0,0,0,0,0,0,0,0,0.8678,0.868,0.8829,0.883,0.8831,0.8943,0.8944,0.8946,0.902,0.9021,0.9021,0.9022,0.9141,0.9144,0.9147,0,0,0,0,0,0,0,0,0,0,0,0,0,0.8763,0.8681,0.8828,0.8882,0.8888,0.8943,0.8944,0.8946,0.902,0.9021,0.9021,0.9022,0.914,0.9144,0.9148,0.916,0,0,0.9161,0.9162,0,0,0,0,0,0,0,0,0.8758,0.8768,0.8872,0.8878,0.8885,0.8968,0.8935,0.9018,0.902,0.897,0.9021,0.9022,0.9084,0.9092,0.9112,0.9165,0.9171,0.9161,0.9164,0.9165,0.9167,0,0,0,0,0,0,0,0.8752,0.8764,0.8874,0.8874,0.8881,0.8901,0.8914,0.8951,0.9022,0.8974,0.898,0.8992,0.9087,0.9108,0.9116,0.9172,0.9161,0.9165,0.9167,0.9169,0.9241,0.9241,0,0,0,0,0,0,0.8737,0.8758,0.887,0.8877,0.8822,0.8903,0.8918,0.8941,0.9021,0.9034,0.8991,0.8995,0.9101,0.9111,0.912,0.9139,0.9165,0.9169,0.9172,0.9242,0.9241,0.9241,0,0,0,0,0,0,0.8734,0.8746,0.8866,0.8819,0.8836,0.8905,0.893,0.8943,0.8964,0.9034,0.9048,0.9,0.9102,0.9115,0.9149,0.9145,0.9171,0.9175,0.9243,0.9242,0.9241,0.9177,0,0,0,0,0,0,0.8729,0.8745,0.8749,0.8819,0.8838,0.8891,0.893,0.8944,0.897,0.8976,0.9046,0.9058,0.9103,0.9143,0.9153,0.9151,0.9178,0.9243,0.9242,0.9241,0.918,0.9174,0.917,0,0,0,0,0,0.8723,0.8727,0.8749,0.8762,0.8845,0.8891,0.8902,0.8953,0.8969,0.8975,0.902,0.9056,0.9143,0.9146,0.9158,0.9157,0.9244,0.9242,0.9241,0.9183,0.9176,0.917,0,0,0,0,0,0,0.8656,0.8737,0.8762,0.8789,0.8832,0.8903,0.8912,0.8944,0.8985,0.8989,0.9052,0.9067,0.9095,0.913,0.9131,0.9173,0.9198,0.9199,0.9149,0.9143,0.9138,0.9128,0.9182,0,0,0,0,0,0.8644,0.8673,0.8743,0.876,0.8781,0.8842,0.8864,0.89,0.8948,0.8967,0.9015,0.9061,0.91,0.9123,0.9162,0.9186,0.9202,0.9191,0.9186,0.9181,0.9181,0.9197,0.9192,0.9236,0.9236,0.9236,0,0,0.8619,0.8668,0.8683,0.8748,0.8786,0.8816,0.8857,0.8887,0.8911,0.8972,0.9007,0.9044,0.91,0.9129,0.9144,0.9159,0.9173,0.918,0.9175,0.9178,0.9195,0.9191,0.9187,0.9235,0.9236,0.9236,0,0,0.859,0.863,0.8648,0.8685,0.8742,0.8783,0.8787,0.8854,0.888,0.8916,0.8963,0.8992,0.9057,0.9095,0.9122,0.9108,0.9142,0.9119,0.9091,0.9105,0.9102,0.9099,0.9094,0.9091,0.9119,0.9119,0.9119,0,0.8553,0.8599,0.8653,0.8681,0.8708,0.8764,0.8784,0.8818,0.8884,0.8902,0.8918,0.8999,0.9041,0.908,0.9076,0.9097,0.9104,0.9111,0.9098,0.9095,0.9094,0.9089,0.9087,0.9116,0.9116,0.9117,0.9117,0,0.8551,0.8582,0.8591,0.8652,0.8681,0.8704,0.8762,0.8785,0.8819,0.8858,0.8895,0.8947,0.8997,0.9009,0.9043,0.9053,0.906,0.9085,0.9112,0.9085,0.9082,0.9081,0.9111,0.9112,0.9113,0.9114,0,0,0.8482,0.8573,0.8575,0.8604,0.8671,0.8697,0.8723,0.8772,0.879,0.8834,0.8858,0.8911,0.8935,0.8967,0.9005,0.9017,0.9002,0.9042,0.9044,0.9032,0.9017,0.8996,0.8994,0.9026,0.9026,0.9026,0.9012,0,0.8463,0.8511,0.8561,0.8592,0.8622,0.8676,0.8699,0.8743,0.8781,0.8813,0.8856,0.8892,0.8921,0.894,0.8955,0.9001,0.9,0.9003,0.9049,0.905,0.9032,0.8992,0.8971,0.8955,0.9011,0.9011,0.9011,0,0.8446,0.8487,0.8521,0.8585,0.86,0.8619,0.8667,0.8697,0.8749,0.8776,0.881,0.8851,0.8882,0.8905,0.8949,0.895,0.8972,0.8998,0.8998,0.9004,0.9028,0.8996,0.8952,0.8949,0.901,0.901,0.901,0,0.8391,0.8455,0.8484,0.8507,0.8583,0.8595,0.8628,0.868,0.8706,0.8749,0.8766,0.8812,0.8838,0.8873,0.8925,0.8937,0.8964,0.8992,0.8988,0.8986,0.899,0.8989,0.8948,0.9005,0.9005,0.9005,0.9005,0,0.8364,0.8383,0.846,0.8477,0.85,0.8558,0.8579,0.8617,0.8662,0.8689,0.874,0.8763,0.8831,0.8864,0.8905,0.8935,0.8946,0.8969,0.898,0.8964,0.8961,0.8979,0.8981,0.9005,0.9005,0.9005,0.9005,0,0.8306,0.8359,0.8394,0.8463,0.848,0.8494,0.8554,0.8573,0.8614,0.8647,0.8658,0.8723,0.8763,0.8819,0.8878,0.8905,0.893,0.8947,0.8912,0.8918,0.891,0.891,0.8879,0.8877,0.8936,0.8935,0.8934,0,0.8285,0.83,0.8371,0.8392,0.8422,0.8455,0.8482,0.854,0.8565,0.8625,0.8638,0.8682,0.872,0.8783,0.8836,0.8881,0.8899,0.8885,0.8906,0.889,0.8898,0.8896,0.8898,0.8879,0.8878,0.8878,0.8877,0,0.8241,0.8267,0.8302,0.8347,0.8377,0.8416,0.8457,0.8471,0.8538,0.8565,0.8606,0.8636,0.8695,0.8738,0.879,0.8825,0.8862,0.887,0.8872,0.8855,0.8834,0.8845,0.8897,0.887,0.8871,0.8872,0.8872,0.8872,0.8201,0.8217,0.8269,0.8307,0.8344,0.8381,0.8403,0.8446,0.8482,0.8533,0.8566,0.8606,0.8658,0.8732,0.8765,0.8797,0.8812,0.8814,0.8815,0.8814,0.8808,0.8829,0.8807,0.8808,0.8808,0.8808,0.8808,0,0.8159,0.8195,0.823,0.8285,0.8316,0.8347,0.8395,0.8418,0.8452,0.8497,0.8534,0.8582,0.8624,0.868,0.8727,0.8743,0.8761,0.8753,0.8752,0.8759,0.8793,0.8787,0.8737,0.8737,0.8737,0.8737,0.8737,0.8737,0.8141,0.817,0.8201,0.8249,0.8286,0.8325,0.8349,0.8384,0.842,0.847,0.8506,0.8542,0.8592,0.8642,0.8683,0.8699,0.8713,0.87,0.872,0.8751,0.8757,0.8763,0.8757,0.8703,0.8703,0.8684,0.8684,0.8684]},{"header":{"parameterUnit":"m.s-1","parameterCategory":1,"la1":30.2991,"la2":30.254,"lo1":-89.0895,"lo2":-89.0444,"dy":0.0017,"dx":0.0017,"nx":28,"ny":28,"refTime":"2024-08-10T03:00:00:Z","depth":0,"parameterNumber":3,"parameterNumberName":"V-component_of_WINDS"},"data":[0,0,0,0,0,0,0,0,0,0,0,0,0,0,0,0,0,0,0,0,0,0,0,0,0,0,0,0,0,0,0,0,0,0,0,0,0,0,0,0,0,0,0,0,0,0,0,0,0,0,0,0,0,0,0,0,0,0,2.709,2.709,0,2.7103,2.7103,2.7103,2.7084,2.7083,2.7082,2.7082,2.7091,2.7092,2.7093,0,0,0,0,0,0,0,0,0,0,0,0,0,2.7044,2.7045,2.709,2.709,2.7091,2.7103,2.7103,2.7103,2.7084,2.7083,2.7082,2.7081,2.7091,2.7092,2.7093,0,0,0,0,0,0,0,0,0,0,0,0,0,2.7061,2.7045,2.709,2.7082,2.7082,2.7103,2.7103,2.7103,2.7084,2.7083,2.7082,2.7081,2.709,2.7092,2.7093,2.7121,0,0,2.7097,2.7098,0,0,0,0,0,0,0,0,2.706,2.7063,2.7083,2.7083,2.7082,2.7091,2.709,2.7109,2.7084,2.7083,2.7082,2.7081,2.7092,2.7093,2.7097,2.7121,2.7122,2.7097,2.7098,2.7098,2.7099,0,0,0,0,0,0,0,2.7059,2.7062,2.7095,2.7084,2.7083,2.7076,2.7078,2.7093,2.7093,2.7083,2.7082,2.7084,2.7091,2.7096,2.7097,2.7122,2.7097,2.7098,2.7099,2.71,2.7164,2.7165,0,0,0,0,0,0,2.7059,2.7061,2.7095,2.7095,2.7069,2.7078,2.708,2.7089,2.7092,2.7092,2.7084,2.7083,2.7094,2.7096,2.7097,2.7127,2.7098,2.71,2.71,2.7163,2.7164,2.7165,0,0,0,0,0,0,2.7058,2.7062,2.7094,2.7078,2.7081,2.708,2.7091,2.709,2.7095,2.7093,2.7093,2.709,2.7093,2.7096,2.7114,2.7127,2.71,2.7101,2.7162,2.7163,2.7165,2.7187,0,0,0,0,0,0,2.7057,2.7062,2.7074,2.7078,2.7082,2.7113,2.7092,2.7091,2.7097,2.7095,2.7098,2.7098,2.7093,2.7112,2.7115,2.7128,2.7102,2.7161,2.7162,2.7164,2.7185,2.7189,2.7193,0,0,0,0,0,2.7055,2.7081,2.7075,2.7079,2.7098,2.7114,2.7116,2.711,2.7099,2.7109,2.7108,2.7098,2.7125,2.7114,2.7118,2.7131,2.716,2.7162,2.7164,2.7184,2.7189,2.7193,0,0,0,0,0,0,2.7078,2.7081,2.7075,2.7103,2.7108,2.711,2.7124,2.7116,2.7124,2.7122,2.7113,2.7114,2.7133,2.7134,2.7122,2.7155,2.714,2.7143,2.7154,2.7159,2.7162,2.7161,2.7104,0,0,0,0,0,2.7087,2.7101,2.7102,2.7126,2.7129,2.7126,2.7133,2.7128,2.7132,2.7134,2.7134,2.7138,2.7147,2.7153,2.7162,2.7186,2.7184,2.7196,2.72,2.7203,2.7205,2.7213,2.7217,2.7172,2.7172,2.7172,0,0,2.7104,2.7107,2.7116,2.713,2.7134,2.7146,2.7128,2.7143,2.7151,2.7136,2.7153,2.7153,2.7156,2.7176,2.7186,2.7178,2.7217,2.7205,2.7208,2.7208,2.7216,2.722,2.7224,2.7173,2.7173,2.7173,0,0,2.714,2.7146,2.7165,2.7168,2.7173,2.7171,2.7175,2.7178,2.7177,2.7194,2.7182,2.7191,2.7208,2.7209,2.7212,2.7245,2.7235,2.7248,2.7267,2.7275,2.7279,2.7282,2.729,2.7294,2.7251,2.7251,2.7251,0,2.7161,2.718,2.7175,2.7189,2.7194,2.7181,2.7198,2.7201,2.7209,2.7211,2.7203,2.7221,2.7223,2.7241,2.7249,2.7253,2.7255,2.7247,2.7279,2.7282,2.7285,2.7293,2.7296,2.7252,2.7252,2.7252,2.7252,0,2.7202,2.7216,2.723,2.7237,2.7243,2.7259,2.7254,2.726,2.7254,2.7252,2.7267,2.7268,2.7274,2.7279,2.7274,2.7295,2.729,2.7281,2.7265,2.729,2.7298,2.7301,2.7254,2.7254,2.7253,2.7253,0,0,2.7255,2.7257,2.7261,2.7263,2.7266,2.7275,2.7289,2.7295,2.73,2.7305,2.7313,2.7326,2.7316,2.732,2.7314,2.7322,2.7343,2.7311,2.731,2.7314,2.7363,2.7369,2.7373,2.7337,2.7338,2.7338,2.7362,0,2.7288,2.7312,2.7306,2.7329,2.7339,2.7325,2.7336,2.7338,2.7336,2.7342,2.7339,2.7346,2.7335,2.7336,2.7343,2.7339,2.7353,2.7338,2.7343,2.7343,2.734,2.7377,2.7384,2.7406,2.7365,2.7366,2.7366,0,2.7331,2.7336,2.736,2.7358,2.7362,2.7373,2.7376,2.7383,2.7384,2.7381,2.7383,2.7375,2.7385,2.7371,2.7383,2.7372,2.7374,2.7372,2.7373,2.7371,2.7355,2.7374,2.7414,2.7416,2.7371,2.7371,2.7371,0,2.7362,2.7375,2.739,2.7392,2.7392,2.7398,2.7398,2.7398,2.7401,2.7404,2.7405,2.7409,2.7411,2.7413,2.7405,2.7396,2.7417,2.7403,2.7412,2.7412,2.7416,2.7416,2.7454,2.7421,2.7421,2.7421,2.7421,0,2.7398,2.7412,2.7403,2.7412,2.7426,2.7418,2.7432,2.743,2.743,2.7436,2.7425,2.7431,2.7421,2.7426,2.7419,2.7428,2.743,2.7426,2.7424,2.7426,2.7426,2.7425,2.7422,2.7422,2.7422,2.7422,2.7422,0,2.7435,2.743,2.7444,2.7442,2.7441,2.7452,2.7448,2.7455,2.7451,2.7459,2.746,2.7454,2.7458,2.745,2.7454,2.7449,2.7461,2.7458,2.7461,2.7459,2.7468,2.7467,2.7506,2.7509,2.7477,2.7477,2.7477,0,2.7457,2.7467,2.7465,2.7469,2.7469,2.7476,2.7478,2.747,2.7473,2.7473,2.7479,2.7482,2.7484,2.7491,2.7485,2.7487,2.7482,2.7495,2.7482,2.7482,2.7478,2.7477,2.7477,2.7497,2.7498,2.7498,2.7499,0,2.7496,2.7492,2.7497,2.75,2.7504,2.7506,2.7507,2.751,2.7501,2.7505,2.7509,2.7511,2.7513,2.7515,2.7515,2.7513,2.7503,2.7503,2.7505,2.7506,2.7506,2.7503,2.7466,2.7502,2.7501,2.7501,2.7501,2.7501,2.7523,2.753,2.7529,2.7534,2.7534,2.7535,2.754,2.7536,2.754,2.7541,2.7536,2.7541,2.7538,2.7537,2.7535,2.7537,2.7531,2.7535,2.7535,2.7535,2.7536,2.7508,2.7538,2.7538,2.7537,2.7537,2.7537,0,2.7559,2.7557,2.7562,2.7563,2.7566,2.7558,2.7558,2.756,2.7565,2.7563,2.7565,2.7568,2.757,2.7564,2.7564,2.7567,2.7562,2.7567,2.7565,2.7564,2.7543,2.754,2.757,2.757,2.757,2.757,2.757,2.757,2.7577,2.7588,2.7583,2.7592,2.759,2.7595,2.7595,2.7595,2.7593,2.7597,2.7599,2.7595,2.7591,2.759,2.7591,2.7589,2.7588,2.7594,2.759,2.757,2.7566,2.7563,2.756,2.7595,2.7595,2.7611,2.7611,2.7612]}]]